Theta_e
305 296 294 293 295 296 298 299 299 300 301 301 300 299 296 297 298 301 302 303 305 301 300 301 301 301 306 307 307 307 308 309 309 311 322 321 321 320 322 322 325 328 326 332 333 335 338 339 338 339 339 339 341 342 343 342 341 342 341 341 340 344 346 343 342 343 344 340 340 342 342 342 342 341 342 343 344 342 343 342 341 341 340 341 342 343
303 295 294 297 298 298 299 300 301 300 300 299 299 298 297 297 296 301 301 304 304 301 299 302 301 303 306 308 309 311 310 309 311 314 316 322 321 322 324 324 324 328 332 333 333 333 334 335 337 338 338 338 336 338 340 339 340 341 342 341 342 344 343 343 344 343 344 343 341 341 340 341 342 342 341 341 343 344 344 343 341 341 341 341 342 343
295 293 296 299 300 300 301 300 300 299 298 299 297 299 297 297 300 303 304 304 304 301 299 301 299 303 306 308 310 311 310 312 314 314 315 321 320 322 324 324 326 327 327 327 329 330 330 332 333 334 335 336 337 338 338 339 339 339 339 340 341 342 342 342 342 342 342 344 344 343 344 343 340 346 349 343 343 345 344 343 343 342 340 340 341 342
292 294 299 301 301 299 299 300 299 299 300 298 298 296 295 299 297 295 301 303 303 301 300 301 299 303 308 310 310 310 309 312 323 323 322 325 324 324 325 326 325 324 323 324 324 325 326 327 327 329 330 332 334 335 335 336 337 337 338 338 339 340 341 341 342 341 343 343 345 347 346 345 345 343 347 347 347 345 343 343 343 342 341 340 339 341
294 298 302 301 300 299 297 299 299 298 296 299 299 298 298 298 298 298 299 303 303 303 303 301 298 302 305 306 307 312 315 315 321 321 322 323 324 324 323 323 323 322 321 321 322 323 323 324 325 327 328 330 330 332 334 335 336 337 337 339 339 339 340 341 341 343 343 343 343 343 344 345 345 344 343 342 342 342 342 341 342 342 341 340 340 340
297 301 302 300 299 299 298 297 298 298 295 297 300 300 300 300 300 300 301 300 298 297 300 299 293 295 303 305 306 310 310 312 318 319 318 320 320 320 319 318 319 320 321 320 320 321 322 323 324 325 326 327 329 330 333 336 336 337 337 338 339 339 340 340 341 343 341 343 340 340 338 338 338 337 338 339 339 340 339 340 342 343 342 341 340 340
298 302 301 299 298 298 298 297 299 299 295 295 297 302 302 301 301 300 299 298 293 291 298 301 294 292 303 303 307 309 311 313 316 315 316 316 316 317 317 317 317 318 318 319 320 320 320 321 322 323 324 326 327 329 332 334 335 336 337 338 338 338 339 340 340 341 342 341 340 340 338 338 338 336 339 344 343 342 344 347 343 343 343 341 341 341
300 300 300 300 298 297 296 295 298 299 296 294 302 302 302 300 299 299 299 297 296 300 301 301 299 294 294 300 306 308 311 311 310 311 312 313 313 313 314 315 315 316 316 317 317 319 319 320 321 321 323 324 325 328 330 332 333 333 335 336 336 337 338 339 339 339 340 338 339 339 338 339 338 338 338 339 342 342 343 344 344 343 343 342 341 342
300 299 299 298 297 296 295 298 300 301 297 297 302 303 301 300 300 299 299 297 297 297 292 297 300 294 294 300 305 309 307 308 308 308 310 311 312 312 313 313 314 315 315 316 316 317 318 319 320 321 321 323 324 327 328 329 331 332 333 333 333 332 334 334 336 335 337 338 338 338 338 337 338 339 339 340 339 340 340 339 343 343 343 343 342 342
301 301 301 301 298 295 299 300 301 301 297 301 304 303 302 301 300 299 298 297 297 294 289 294 298 292 292 299 301 308 307 306 307 308 309 310 311 312 312 312 313 314 315 316 317 317 318 319 320 322 322 322 324 326 327 328 329 329 329 329 330 328 330 331 331 332 333 334 335 336 337 336 336 337 339 340 338 337 339 338 339 338 339 340 339 340
302 305 306 302 298 300 300 301 301 301 302 304 303 300 299 299 299 299 298 298 295 288 291 296 298 295 289 296 300 301 302 308 307 307 308 309 310 311 311 311 312 313 314 315 316 317 317 319 320 320 320 321 323 325 325 326 327 327 327 327 327 327 328 329 329 330 330 332 332 332 333 333 334 335 336 336 338 337 337 335 335 337 336 338 336 337
302 302 300 302 305 304 303 300 302 303 304 302 299 297 297 295 297 296 295 297 289 286 293 297 297 298 288 297 302 306 309 310 308 306 306 307 308 309 310 310 311 312 313 314 315 315 316 317 318 319 318 319 320 322 322 323 324 324 325 325 325 326 327 327 328 329 329 330 330 330 331 331 332 333 333 334 334 335 334 334 335 336 335 333 334 335
297 298 301 302 306 303 300 298 300 302 302 300 297 296 291 288 288 286 290 287 287 286 293 297 298 294 293 299 309 307 310 310 310 309 307 307 307 308 309 310 310 312 313 313 313 314 314 315 315 316 316 318 318 318 319 320 321 322 322 323 323 323 325 326 327 327 327 327 328 328 328 329 330 331 332 332 333 335 334 334 333 333 332 333 332 332
294 299 299 300 302 304 302 295 295 294 297 296 294 293 290 285 284 282 286 288 289 292 297 297 299 292 302 304 308 308 310 311 310 309 308 307 307 307 308 309 310 311 311 312 313 313 314 314 314 315 315 316 317 317 319 319 320 320 321 321 321 322 324 324 325 325 325 326 326 328 328 328 329 329 329 330 331 334 335 335 334 333 332 332 331 330
287 288 294 297 295 303 301 299 298 296 296 296 298 295 293 291 287 281 285 283 285 289 294 298 293 290 294 297 308 308 309 309 309 309 308 308 308 308 309 310 310 310 311 311 312 312 313 313 314 314 315 315 316 317 318 318 318 319 319 320 320 320 322 323 323 324 324 325 326 327 327 327 327 327 327 328 330 331 333 334 335 332 331 332 332 333
292 291 298 301 301 302 299 302 302 300 297 298 298 299 294 292 296 287 289 289 289 289 289 291 291 297 299 306 308 309 308 308 308 307 307 306 307 308 307 308 308 310 311 311 311 311 312 313 313 314 315 315 315 316 318 318 320 320 319 320 320 321 322 322 322 323 323 324 325 326 326 326 326 326 327 327 329 330 331 333 334 333 335 333 332 332
293 291 299 300 302 301 300 302 301 302 290 296 296 292 294 301 298 291 291 296 292 288 287 297 296 300 304 307 306 306 306 306 307 306 306 306 307 307 306 307 308 309 310 310 310 310 311 312 313 314 314 315 316 317 317 318 319 319 320 319 319 320 322 321 322 322 323 323 323 324 323 324 324 325 325 326 328 329 330 331 333 335 335 334 334 334
291 291 299 299 297 302 303 302 302 303 302 298 291 295 301 303 301 294 286 288 287 284 286 296 293 293 296 289 305 304 304 305 305 306 306 306 306 305 306 306 307 308 309 310 310 310 311 311 312 313 314 314 316 316 317 318 320 320 320 320 319 320 320 320 321 321 321 321 322 322 322 323 323 323 323 325 325 327 328 329 330 333 334 334 334 335
298 289 295 299 299 301 303 301 299 302 304 298 296 303 294 288 287 293 289 284 283 282 285 294 296 296 297 295 301 301 302 303 304 305 305 305 305 305 305 306 308 308 308 308 308 308 309 310 311 313 313 314 315 317 318 316 319 318 320 319 319 319 320 319 320 321 321 321 321 321 321 321 321 322 322 323 323 324 324 325 327 329 331 334 334 333
299 289 291 299 298 300 300 298 290 295 301 302 303 298 300 297 293 289 289 291 290 284 284 287 294 289 300 299 303 303 304 304 304 304 304 304 305 305 305 306 306 306 306 307 307 308 309 310 311 312 313 313 313 313 315 316 317 317 318 318 318 319 318 318 318 319 319 320 320 320 321 321 320 321 321 321 321 321 322 322 324 325 327 330 334 334
293 299 287 295 300 299 292 295 293 295 293 295 296 294 296 296 299 296 296 291 288 286 286 286 285 293 301 306 306 306 305 305 304 304 304 304 305 306 306 305 305 305 305 306 307 307 309 310 311 312 313 313 313 314 315 316 315 315 316 316 316 316 316 317 318 318 318 319 319 319 319 319 319 319 320 320 320 321 321 321 322 323 324 326 328 333
293 293 288 293 293 292 294 299 299 299 298 296 295 293 295 292 290 287 286 295 293 289 286 286 286 295 303 307 308 307 307 306 306 305 303 304 304 304 304 304 304 304 305 306 307 308 308 310 311 311 311 312 312 312 313 313 314 314 315 314 316 316 315 316 316 317 317 318 318 317 318 318 318 318 318 318 319 319 319 320 321 323 324 324 326 328
300 298 293 290 292 293 297 300 302 302 302 300 297 295 297 296 295 290 284 289 293 293 295 293 289 291 302 306 309 309 307 307 305 304 303 303 303 304 304 304 305 305 305 306 307 308 309 309 309 309 310 310 311 311 312 313 313 313 314 314 314 314 314 315 315 316 317 316 316 317 317 317 317 317 317 317 317 318 319 320 321 322 323 323 325 327
304 294 290 292 296 297 299 301 301 301 301 298 298 299 297 294 295 293 292 296 291 291 289 290 288 291 301 307 309 307 306 305 304 303 302 302 303 303 303 303 304 304 305 307 307 308 309 308 309 309 309 309 309 310 310 312 312 312 312 312 313 313 314 315 315 316 316 316 316 316 317 316 316 316 316 316 316 317 318 319 320 321 321 322 323 323
292 295 293 288 288 290 292 296 296 299 298 296 295 297 298 298 298 297 297 301 289 292 292 290 285 290 299 306 306 304 303 303 302 303 303 301 302 303 303 303 304 305 305 306 306 307 307 308 308 308 308 308 308 309 310 310 310 310 311 311 311 312 314 314 314 315 315 315 315 316 315 316 316 315 316 316 316 317 317 317 318 319 319 320 320 321
295 294 292 286 283 281 281 282 285 289 292 296 297 297 298 297 297 296 290 292 287 292 293 290 289 294 300 302 302 302 302 301 302 302 302 302 302 302 302 303 304 304 305 306 306 306 306 307 307 307 307 307 308 308 308 309 309 309 309 311 312 311 313 313 314 314 314 315 314 314 315 315 315 315 316 316 316 317 316 317 317 317 317 318 317 318
296 299 295 293 289 287 290 292 297 296 294 291 295 296 297 298 298 298 297 291 288 292 290 295 293 291 294 297 298 299 299 298 299 300 300 300 301 302 302 303 303 304 305 305 306 305 306 306 307 307 307 307 307 307 308 308 308 308 309 310 310 311 312 313 313 313 313 313 313 313 313 314 314 314 315 315 316 316 315 315 316 315 315 315 315 315
297 293 295 297 298 296 296 297 297 297 294 294 294 295 297 297 297 297 292 290 297 292 288 296 296 293 293 296 297 297 298 298 299 299 299 300 300 301 301 302 303 304 304 305 305 305 304 305 306 306 307 308 307 308 308 308 308 308 309 308 309 310 311 313 312 312 312 312 312 312 312 313 314 314 314 315 315 314 315 314 314 314 314 313 312 312
295 290 298 299 298 299 299 299 298 297 296 296 296 297 297 297 297 296 297 299 300 292 290 295 297 294 294 295 297 297 298 298 298 299 300 301 301 302 302 302 302 303 303 304 304 304 304 304 305 305 306 306 306 306 306 307 307 308 308 309 308 310 310 311 311 310 310 310 310 311 311 312 313 313 313 313 313 313 313 313 313 313 312 311 311 311
298 294 300 299 297 298 298 299 299 298 299 296 296 296 297 298 299 299 299 301 301 298 298 298 297 294 295 295 296 297 299 298 298 300 300 300 300 302 302 302 302 302 302 302 303 303 303 304 304 305 305 305 305 305 305 306 306 307 307 308 308 309 308 311 310 309 309 308 309 310 310 310 311 311 311 311 311 311 311 311 312 312 310 310 310 309
297 292 299 298 295 295 298 300 299 301 301 296 297 298 299 300 301 302 301 301 301 299 299 296 293 291 295 297 295 297 298 298 298 298 299 300 301 301 301 301 301 301 302 302 302 303 303 303 303 304 304 304 305 305 305 306 306 307 307 307 307 307 309 308 308 308 308 307 308 309 309 309 309 309 309 310 309 310 310 309 310 310 309 309 309 308
300 294 300 298 290 292 297 298 299 301 301 299 297 298 299 300 296 298 297 301 299 294 294 293 288 286 292 295 295 296 296 296 296 297 297 298 300 300 300 299 300 301 301 301 302 302 302 302 302 302 303 303 304 304 304 305 305 306 305 306 306 308 308 308 308 307 307 307 307 307 307 308 308 307 308 308 307 308 308 308 308 308 308 308 308 308
297 298 293 292 289 289 297 299 299 298 295 292 291 295 298 299 300 299 300 301 300 297 292 289 290 291 292 294 293 294 295 296 296 296 297 298 299 299 299 299 300 299 300 300 300 300 301 301 301 302 302 303 303 303 304 305 305 305 305 306 307 308 307 307 307 306 306 306 306 306 307 307 306 306 307 307 307 308 307 307 307 306 306 306 307 307
299 299 294 298 289 290 294 297 298 292 285 286 297 301 301 298 298 294 292 293 295 298 294 296 292 293 293 293 292 292 293 294 295 297 299 298 298 298 298 299 299 299 299 299 300 300 300 301 302 302 302 303 303 304 305 306 306 306 306 306 306 306 306 305 305 305 305 305 305 305 306 306 306 306 306 306 307 307 306 306 305 306 306 306 306 306
298 296 295 297 290 289 292 292 285 283 283 293 299 302 304 301 299 295 295 295 294 294 293 292 292 292 293 294 293 294 294 296 297 296 297 298 298 297 297 297 298 298 298 298 299 300 300 301 301 302 302 302 303 304 305 304 305 305 305 305 305 305 305 304 304 304 304 304 305 305 305 305 305 305 305 306 306 306 305 305 305 305 305 305 305 304
295 294 295 291 292 291 288 288 281 282 291 297 299 300 301 299 297 295 292 294 295 294 294 292 292 293 293 293 293 294 293 294 295 296 296 297 298 297 297 296 297 298 298 299 299 300 300 301 301 301 302 304 304 303 303 303 305 304 304 304 304 304 304 304 303 303 304 303 304 304 304 305 304 305 305 305 305 305 305 305 305 304 305 305 305 304
300 298 294 290 294 287 288 286 284 289 290 293 294 296 298 294 295 294 285 288 295 295 294 292 292 292 292 292 292 292 293 293 291 292 297 297 298 299 298 298 298 299 299 300 301 301 302 302 302 303 304 304 304 303 303 304 304 303 303 303 303 303 302 303 302 302 303 303 303 304 304 304 304 304 304 304 304 304 304 304 304 304 305 303 303 302
302 296 296 291 289 292 287 284 284 284 283 287 295 300 303 302 301 298 292 287 294 295 295 292 290 290 291 291 291 292 293 289 286 288 294 297 298 298 299 299 300 300 300 301 301 302 302 303 303 304 304 303 303 303 304 304 304 303 302 302 302 302 301 302 301 302 302 302 303 303 303 303 303 303 303 303 303 303 303 304 304 304 304 303 302 301
302 304 300 293 290 291 289 286 285 283 286 293 295 299 303 303 300 300 293 284 292 294 294 293 291 291 291 291 291 292 291 286 285 288 294 296 297 298 298 299 299 300 301 301 301 301 301 302 302 302 303 303 302 303 304 304 303 302 301 302 302 301 301 301 301 301 302 302 302 303 303 303 303 302 302 302 302 303 302 302 303 303 304 303 303 302
298 295 293 291 288 290 289 287 283 286 286 294 298 300 302 304 303 299 287 285 291 294 295 294 292 291 292 292 292 292 291 285 286 290 296 297 298 298 298 298 299 300 300 301 302 302 302 302 302 301 301 301 302 304 303 303 303 302 301 301 301 301 300 301 302 302 302 303 303 303 303 303 302 303 302 301 302 302 302 302 302 302 302 302 301 301
291 292 292 288 290 289 287 286 287 288 295 300 300 302 302 305 300 289 285 289 294 295 295 294 293 294 294 293 294 292 295 294 293 295 297 298 298 298 299 300 300 300 300 300 301 301 301 301 301 300 300 301 302 302 302 302 302 301 301 301 301 300 301 302 303 303 303 303 302 302 302 302 302 302 302 302 302 302 301 301 301 301 300 300 300 300
290 291 291 290 289 288 288 286 287 289 296 300 302 302 304 299 288 288 293 298 297 295 296 296 295 295 295 295 295 293 294 295 296 296 296 297 297 298 299 299 300 300 301 301 301 301 301 301 301 301 301 302 302 302 302 301 300 300 300 300 300 301 302 303 303 303 302 302 302 302 302 302 302 303 303 302 302 301 300 300 300 300 300 299 299 298
291 288 287 288 289 290 288 285 285 282 291 302 301 299 301 291 291 296 297 298 299 298 297 297 297 297 298 295 295 295 295 295 295 296 296 297 297 297 298 298 299 298 299 300 300 300 300 300 299 299 300 301 302 302 302 301 300 299 300 300 301 302 302 303 303 302 302 302 302 302 302 302 302 302 302 302 301 301 299 299 299 299 299 298 298 297
297 288 287 287 292 286 286 285 285 292 297 303 301 292 298 299 300 300 298 296 298 299 297 297 297 298 297 296 295 295 295 295 296 296 297 297 298 298 298 299 299 299 300 300 299 300 300 299 299 299 300 300 301 301 301 301 299 299 299 300 302 302 303 303 303 302 302 302 302 302 302 302 302 302 302 301 301 300 299 299 298 298 298 298 297 296
297 294 295 288 293 290 288 290 296 300 301 302 302 300 300 301 302 301 300 298 297 297 300 297 296 297 297 296 296 295 295 295 295 297 296 297 297 297 297 298 299 299 299 298 298 299 299 298 298 299 299 300 301 301 301 301 300 299 299 301 302 301 301 302 302 302 301 301 301 302 301 302 302 302 302 301 301 299 299 298 298 297 297 297 297 296
299 298 298 295 292 297 298 299 300 300 300 301 302 303 302 301 302 302 300 298 299 299 300 297 297 297 297 297 295 296 296 296 296 296 297 297 297 298 299 298 298 299 299 299 299 299 299 299 299 298 298 299 300 301 301 301 300 299 300 301 302 301 301 301 301 301 301 301 301 301 301 301 301 302 302 301 301 300 299 299 298 297 297 297 296 296
299 301 298 292 295 292 286 299 297 297 299 300 300 301 302 302 301 301 300 300 300 300 299 299 299 298 298 297 297 296 296 297 296 297 297 297 297 297 298 298 298 298 298 297 299 299 299 298 298 298 298 298 299 300 300 300 300 300 301 301 301 301 301 301 301 301 301 301 300 301 302 301 300 301 301 300 300 299 300 299 298 297 296 296 296 296
295 302 296 296 294 290 289 295 297 299 300 300 299 298 298 300 300 301 301 301 300 300 300 300 299 298 298 297 298 297 297 297 297 296 297 297 298 297 297 297 297 297 298 299 299 299 298 298 297 298 298 298 299 300 300 300 299 300 301 301 301 301 301 301 301 300 300 300 301 300 300 301 295 298 300 299 298 297 297 299 299 297 295 295 295 295
300 302 291 294 291 293 296 297 297 299 298 299 300 300 300 300 299 300 300 300 300 299 299 299 300 299 299 298 298 298 297 297 297 297 297 297 297 297 297 297 298 298 298 298 299 299 298 298 297 298 298 298 299 300 300 300 300 300 301 301 301 301 300 300 300 301 300 300 299 301 301 302 301 300 301 300 298 297 296 295 297 297 297 295 294 294
298 293 295 293 288 288 289 292 296 290 290 296 298 299 299 300 300 299 299 299 299 299 299 298 299 300 299 299 298 298 297 297 298 298 296 296 297 297 297 297 298 298 298 298 299 299 298 299 299 299 298 298 300 299 299 300 300 300 300 300 300 301 300 299 299 300 299 299 298 298 299 300 299 300 300 300 299 298 296 289 289 290 295 296 291 288
297 296 295 291 289 289 295 297 298 297 296 297 298 299 300 301 300 299 298 298 299 300 299 298 298 298 298 299 300 299 298 297 297 298 297 297 297 297 298 298 297 298 298 299 298 298 298 298 299 299 298 299 300 299 299 299 299 300 300 300 300 300 300 299 298 298 298 298 298 297 298 298 298 298 299 300 300 300 298 297 296 289 288 289 289 289
Wind_Speed
10 13 14 15 14 15 17 17 16 19 16 13 13 13 13 14 12 15 13 17 18 16 15 16 17 14 12 10 9 12 12 13 15 12 18 12 10 10 7 5 9 10 9 7 2 5 10 11 10 9 9 8 8 8 7 7 7 7 7 5 6 4 2 2 3 2 2 2 1 1 1 1 3 3 3 4 5 5 5 6 5 4 4 5 4 5
13 14 16 17 17 17 18 17 16 18 20 17 11 12 11 15 12 13 15 20 18 13 14 16 16 14 11 10 9 5 5 3 4 5 12 17 15 13 14 10 10 9 10 10 9 10 10 10 11 10 8 8 9 9 9 8 8 6 6 6 4 3 4 4 3 1 3 2 3 2 2 0 2 3 2 4 3 4 4 4 4 4 4 4 5 4
15 16 15 17 17 17 16 18 17 17 18 17 16 12 12 12 13 12 14 21 18 16 12 16 15 13 12 9 9 8 9 6 2 2 4 18 20 12 11 12 11 11 11 12 11 10 11 13 13 11 9 9 8 8 8 7 8 8 6 5 4 4 4 4 4 3 3 2 2 2 2 2 2 1 1 1 5 5 4 4 4 4 3 4 4 5
14 15 17 17 16 17 17 16 17 17 16 13 12 11 13 11 11 10 14 16 17 11 11 16 11 10 12 9 10 9 7 10 20 20 18 16 16 15 14 13 12 12 12 11 11 10 12 13 12 11 10 9 10 9 8 7 7 6 5 5 4 4 4 3 3 3 3 3 1 1 1 2 2 2 1 1 2 4 4 4 3 3 4 5 5 6
14 12 16 17 18 18 18 17 16 14 13 14 14 13 13 14 14 14 10 13 15 15 16 16 12 10 10 9 9 8 7 10 17 19 17 16 16 16 16 14 13 12 11 10 10 10 10 11 11 10 9 9 9 9 10 9 7 5 6 5 5 4 4 3 3 3 2 2 1 1 2 2 2 4 3 1 1 1 2 4 5 5 6 6 5 5
16 15 16 19 19 19 19 16 17 15 13 12 15 16 13 13 16 18 9 11 8 12 17 17 8 8 10 12 11 9 10 10 10 12 15 13 12 13 14 14 13 13 11 11 10 10 10 10 10 10 10 10 8 8 7 7 8 8 6 6 5 4 4 4 4 3 2 1 1 1 2 2 3 3 2 2 2 3 4 4 4 5 6 6 6 6
13 15 17 19 19 19 20 17 17 17 13 11 12 18 19 17 14 16 15 14 12 13 16 18 12 4 9 11 13 10 11 14 12 12 10 11 10 10 11 10 11 11 11 11 10 10 10 10 10 10 10 9 9 7 6 6 7 8 7 6 6 5 4 4 3 3 2 2 1 1 2 2 3 3 1 3 2 2 2 3 4 4 4 5 4 4
14 18 18 19 20 19 17 17 16 18 13 12 9 17 17 17 15 14 16 13 8 11 13 16 11 9 10 13 13 14 15 13 11 9 8 9 10 10 10 11 10 10 10 10 11 11 10 10 10 10 9 8 9 7 7 6 7 7 7 7 7 6 6 7 7 8 6 5 4 3 3 3 3 3 2 2 1 2 2 2 2 3 3 4 4 4
16 16 19 20 19 17 16 15 14 18 15 10 13 16 16 18 16 17 13 13 11 11 13 13 15 8 7 11 18 19 15 12 11 9 8 8 9 10 10 10 11 11 10 10 10 11 10 10 10 9 9 8 9 8 7 7 6 6 8 8 9 9 8 8 9 8 8 6 5 4 3 4 3 3 2 2 1 1 0 2 1 1 1 2 3 3
13 16 17 15 14 14 14 16 17 18 16 14 13 12 13 17 17 14 12 13 11 10 11 15 15 10 11 10 14 15 14 14 13 11 10 8 9 9 9 10 11 10 9 9 11 10 10 9 9 8 8 9 7 6 7 7 7 8 8 9 9 10 9 8 10 9 9 8 7 6 6 8 7 6 4 1 0 1 1 2 2 2 3 3 3 3
14 15 18 14 14 14 15 17 19 16 16 11 17 14 14 13 11 12 10 10 9 7 13 15 16 14 10 13 14 16 14 15 14 12 10 10 10 9 9 9 9 9 8 8 9 10 10 8 8 7 9 8 8 6 7 7 7 7 7 8 8 8 7 8 8 9 10 9 8 8 9 8 8 8 7 6 3 1 1 1 3 2 3 4 4 4
17 17 14 11 17 14 14 15 16 15 16 15 12 12 10 10 9 10 9 9 6 8 14 18 16 18 14 8 11 11 14 20 18 16 14 13 11 9 9 9 8 8 8 8 8 8 9 8 8 8 9 9 9 8 8 7 7 7 8 8 8 7 7 6 7 7 7 7 8 9 10 10 9 8 7 7 7 5 5 4 3 2 3 3 3 3
16 15 12 14 12 15 14 14 15 15 14 15 13 12 12 9 6 8 9 9 10 10 13 19 18 14 13 7 8 14 18 18 16 15 15 14 13 11 10 10 8 8 8 7 7 8 7 7 7 8 8 7 7 7 8 8 7 7 7 8 8 7 7 7 6 6 7 7 8 8 9 9 9 10 10 8 8 6 5 4 4 4 3 2 4 3
13 15 18 18 17 16 17 15 14 15 14 16 16 13 12 11 10 8 10 6 9 14 16 18 18 6 8 10 14 17 14 16 17 16 15 14 13 11 10 8 8 7 7 7 7 7 7 7 7 7 6 7 6 8 6 7 6 6 6 8 8 8 8 8 7 8 7 7 8 8 8 8 8 9 9 9 8 8 6 5 3 2 3 3 5 5
13 15 17 17 12 15 17 15 13 11 14 15 15 14 12 12 9 8 10 10 11 10 15 16 11 4 6 5 11 18 18 17 16 15 15 14 13 12 10 9 8 8 7 6 7 7 7 6 6 6 6 6 6 6 6 6 7 7 6 7 8 8 8 8 9 7 8 6 6 6 7 8 8 8 8 8 8 8 8 7 4 3 3 4 4 5
20 12 14 16 11 17 18 17 15 16 14 14 14 12 12 13 9 11 4 7 7 9 8 6 3 3 7 10 12 13 15 16 16 16 15 13 12 12 9 8 7 7 7 7 7 7 7 7 6 6 5 6 6 6 5 6 5 5 5 6 6 7 6 7 7 8 7 7 8 7 7 8 7 7 6 6 7 8 8 7 5 5 3 2 4 5
13 13 14 17 20 20 21 17 17 15 12 12 14 16 14 12 12 3 5 8 2 3 5 7 7 7 8 6 13 15 15 15 15 15 14 13 12 11 9 8 7 7 7 7 7 7 7 6 6 6 6 5 5 5 5 6 5 5 4 6 7 3 5 7 7 7 8 8 8 8 9 9 10 9 8 7 7 8 8 8 7 5 3 4 4 4
10 11 17 18 22 18 20 19 18 16 12 9 14 15 13 14 14 5 4 4 5 6 3 8 11 9 10 3 9 13 14 14 14 14 15 14 13 11 9 8 7 7 8 8 8 7 6 6 6 6 6 6 6 7 4 4 4 5 7 4 4 4 5 6 8 7 7 8 7 7 8 8 7 8 9 9 9 9 8 8 7 7 5 4 5 4
13 10 14 17 16 16 19 18 17 16 18 14 14 10 13 8 12 6 2 6 8 8 6 9 12 10 8 8 12 14 15 14 14 14 14 13 12 12 11 10 8 7 7 6 6 6 6 6 6 6 6 7 6 3 6 8 6 8 3 6 6 8 10 12 6 7 5 6 6 7 8 9 9 8 8 9 10 10 10 10 10 9 7 5 3 6
10 8 10 17 18 16 13 13 12 14 17 19 12 13 12 7 8 7 5 7 8 7 7 6 9 5 5 10 15 17 18 16 15 13 12 12 12 11 10 9 8 6 6 6 6 6 6 6 7 6 6 8 8 8 8 8 7 5 7 8 10 11 9 10 10 8 9 8 8 9 8 9 10 10 9 10 10 9 10 11 12 12 11 10 6 3
6 6 4 13 17 12 13 11 15 16 15 15 13 13 12 8 5 9 7 10 8 6 8 4 4 4 6 4 14 15 17 17 15 14 12 11 11 11 11 9 7 7 6 6 6 6 6 6 6 7 8 8 8 7 6 6 9 9 8 8 9 9 10 9 7 8 7 8 8 9 10 10 10 12 11 11 10 9 9 10 11 10 10 10 10 7
4 7 4 10 13 14 13 15 17 20 18 14 12 12 14 13 10 11 10 12 11 8 5 5 4 5 5 5 2 9 15 15 15 15 13 12 11 11 10 9 8 8 7 6 6 6 6 7 8 7 7 8 8 8 9 8 6 8 8 8 8 8 7 8 8 8 9 9 9 10 10 10 9 10 10 11 9 10 10 10 9 10 10 9 9 10
6 3 6 7 12 13 16 17 18 18 18 18 15 14 16 12 10 7 8 8 11 10 11 2 6 3 5 7 3 9 11 15 16 16 15 12 11 11 10 10 9 8 8 7 7 7 7 7 7 7 9 9 9 9 8 7 8 8 9 9 9 9 10 11 10 9 8 8 9 10 10 10 10 11 11 11 10 10 11 9 9 10 10 11 11 12
4 3 9 10 10 13 17 16 18 18 19 18 18 16 14 14 15 11 9 4 4 6 8 4 2 2 6 5 9 13 15 16 14 15 16 12 11 11 12 10 10 9 9 8 8 7 8 7 7 9 9 9 9 8 9 8 8 9 9 9 9 10 10 8 7 7 8 8 9 9 9 10 9 10 9 9 8 9 10 10 10 9 10 10 9 12
6 6 9 9 8 8 11 13 16 18 17 14 13 14 18 16 18 15 12 3 2 7 9 4 5 4 1 3 11 15 16 16 15 14 14 14 11 11 11 9 9 10 9 9 10 10 9 9 10 9 9 9 9 9 7 9 10 10 9 9 9 9 8 8 8 9 8 7 9 8 9 9 9 9 9 9 8 8 8 9 9 9 11 10 11 11
7 7 7 10 11 11 11 14 15 16 17 11 14 17 21 19 15 10 9 7 6 6 15 2 5 8 7 8 15 15 15 15 13 14 13 12 13 11 10 10 10 9 10 10 8 10 11 10 10 10 9 9 9 9 9 9 9 9 9 9 7 8 8 9 9 9 8 8 8 9 10 9 9 10 10 10 9 9 10 9 9 10 10 12 13 12
5 7 8 8 10 10 11 11 9 10 12 16 17 19 17 18 18 12 5 5 7 5 2 5 15 15 13 13 16 15 15 16 14 13 13 12 12 11 11 9 9 9 9 9 10 12 11 9 8 10 9 8 9 8 7 8 9 9 8 10 11 10 10 10 9 9 11 11 11 10 10 10 10 10 9 10 10 10 11 11 11 12 12 12 13 13
6 7 11 6 4 1 7 11 15 16 17 14 13 15 17 17 16 12 5 5 4 6 5 2 19 18 13 14 15 15 14 14 13 13 13 12 11 11 10 10 10 10 9 9 9 10 10 9 10 10 9 8 8 7 6 7 8 7 8 10 9 9 7 5 6 10 10 10 10 10 10 9 9 10 10 10 11 11 11 11 12 11 12 12 13 13
9 6 8 2 3 3 2 5 8 12 12 13 14 11 13 15 16 9 6 10 10 0 9 12 14 14 13 12 13 12 12 12 13 13 12 12 12 12 12 12 11 11 10 10 10 9 10 9 8 8 8 8 9 11 11 10 11 11 10 7 9 7 7 6 9 9 10 10 11 11 10 10 9 9 11 12 11 11 12 12 11 11 12 12 12 11
5 7 6 6 3 6 5 5 6 7 7 13 15 13 12 6 5 6 6 12 11 12 19 18 16 15 11 12 12 9 9 11 10 9 10 12 12 12 12 12 11 10 10 10 9 9 8 8 8 8 8 9 10 10 11 10 10 10 11 12 11 10 13 10 9 10 11 12 11 10 11 11 11 11 10 11 12 11 12 12 11 11 12 13 13 13
6 3 7 5 4 7 7 5 4 4 11 3 11 11 5 12 13 15 18 19 21 16 16 22 19 13 8 11 11 9 9 7 9 11 12 11 12 12 12 12 11 10 10 9 9 9 8 8 8 8 9 9 10 10 9 9 10 9 10 11 11 11 10 10 10 11 12 12 12 11 11 11 11 11 12 11 11 11 13 14 12 12 13 12 13 13
6 3 6 4 2 4 10 8 8 10 10 12 16 16 12 10 11 7 7 4 12 13 18 18 14 10 8 13 13 11 10 9 10 11 11 9 11 11 12 11 10 10 9 9 9 8 8 8 8 9 9 9 10 10 10 9 9 9 10 9 11 10 10 10 11 12 12 13 12 12 13 11 12 12 12 12 13 13 13 13 13 13 13 12 13 11
7 5 3 4 3 4 8 11 13 13 10 7 7 10 9 10 14 13 11 6 9 20 13 8 7 13 15 14 15 12 11 10 10 11 11 11 10 11 11 11 11 10 9 8 8 8 8 7 7 8 8 8 9 8 9 9 9 10 10 10 9 9 9 10 10 11 12 12 12 13 12 13 12 13 12 12 12 10 11 13 13 14 14 14 12 10
9 8 6 4 4 7 10 11 9 7 8 3 4 6 5 10 11 14 8 9 10 5 5 8 16 18 17 15 17 16 12 9 8 8 8 7 8 10 11 10 9 9 9 8 7 7 7 6 6 7 8 8 8 8 8 8 8 8 9 9 9 9 10 11 11 11 12 12 12 12 13 12 13 13 13 12 12 11 11 12 12 12 10 10 11 11
7 7 3 3 2 4 8 8 5 5 2 0 4 6 10 13 17 17 15 12 12 15 20 21 19 18 16 15 16 15 13 11 9 10 9 9 9 8 10 9 9 8 8 8 7 7 7 8 8 7 8 8 7 7 8 9 9 8 9 9 9 10 11 11 12 12 11 10 11 11 11 12 13 13 13 12 11 11 12 12 10 11 10 9 10 11
5 5 4 3 2 3 4 6 7 4 1 3 7 12 15 17 16 17 16 13 12 11 16 19 17 17 18 17 16 13 13 13 12 9 8 9 9 9 9 8 8 8 8 7 7 7 8 8 8 7 7 6 7 8 9 8 7 8 9 9 10 10 11 11 11 11 10 10 10 11 11 11 11 12 12 12 12 12 12 11 11 11 9 9 9 9
8 7 5 5 5 4 5 3 5 2 3 5 9 8 8 7 7 4 7 7 8 9 13 17 18 18 19 18 16 14 14 13 10 7 5 7 8 9 9 9 9 9 8 8 7 7 7 8 8 7 7 6 7 8 8 8 8 9 9 10 10 11 11 11 11 11 10 10 10 10 11 12 12 11 11 12 12 12 11 11 11 10 9 9 10 10
2 5 8 6 5 6 5 6 5 4 5 7 5 7 6 7 9 12 12 6 5 10 13 17 18 18 18 17 16 16 14 12 9 6 7 8 9 9 10 10 10 9 8 8 8 8 8 8 8 7 6 7 8 7 6 7 7 7 8 9 10 10 11 11 12 11 10 10 10 11 10 11 11 11 11 12 13 12 11 10 9 9 9 9 9 10
8 6 5 3 4 5 4 5 3 3 2 7 11 11 5 10 14 11 8 4 7 11 13 15 17 16 16 16 16 13 7 7 7 7 8 9 10 9 10 10 9 9 9 9 8 8 9 8 8 8 8 8 8 7 6 6 8 9 9 9 8 9 9 9 10 10 10 10 11 10 9 10 10 10 10 11 11 11 12 12 11 11 10 10 9 9
7 3 3 1 4 3 3 3 2 2 1 6 12 11 8 7 10 3 5 6 12 13 14 15 17 16 15 15 13 8 5 9 10 9 11 11 10 10 9 10 9 9 9 9 8 8 9 8 8 9 9 8 7 7 8 7 7 8 8 8 8 8 9 9 9 9 9 9 9 9 9 9 10 9 9 10 10 10 11 10 10 11 11 11 10 10
2 3 0 2 3 2 6 4 4 1 3 7 8 9 7 5 5 5 2 6 16 15 14 14 15 14 14 13 9 3 3 9 12 15 13 12 11 11 10 9 9 9 9 8 8 8 8 7 9 9 7 7 8 8 9 8 6 7 8 8 8 9 8 8 8 8 7 8 9 9 10 9 9 9 9 9 9 8 10 10 11 11 12 11 10 10
2 2 3 1 3 3 3 6 4 3 2 0 7 4 6 7 3 4 4 12 19 18 16 15 15 14 12 10 7 10 13 18 17 14 14 13 12 11 11 10 9 9 8 8 8 7 7 8 9 8 7 8 9 8 8 8 8 7 7 9 10 8 7 7 7 7 8 8 9 8 8 9 9 8 8 8 9 9 10 11 11 11 11 10 10 11
3 1 1 2 2 5 1 6 6 5 2 4 6 4 1 2 2 8 15 15 14 17 17 15 13 12 11 13 14 17 18 17 17 15 14 13 12 12 11 10 10 9 8 8 8 7 6 8 8 6 7 8 7 7 7 8 8 7 9 10 8 6 6 7 7 7 7 8 9 8 8 8 9 8 7 8 10 10 10 10 10 11 11 11 11 11
3 1 1 2 2 2 4 3 2 3 8 5 5 2 4 8 11 13 14 17 14 14 15 13 13 13 14 15 17 16 17 18 16 15 14 13 12 11 11 10 9 8 9 9 8 8 9 9 8 7 8 7 9 8 7 6 5 8 9 8 5 5 7 8 7 6 7 6 7 7 8 8 7 8 8 9 8 9 9 10 10 10 10 9 10 9
5 5 2 5 4 1 3 4 6 7 7 6 8 12 13 14 12 14 14 15 16 14 13 12 14 15 15 16 16 17 16 15 16 15 14 13 12 11 11 10 8 9 9 8 9 9 8 8 8 8 10 8 8 4 3 5 9 10 8 4 5 9 9 7 6 6 7 8 7 7 8 7 6 7 9 9 9 8 8 9 9 9 9 9 10 10
11 16 13 14 11 14 12 9 8 9 10 11 11 12 15 15 14 14 16 14 12 13 12 13 16 16 16 16 17 15 15 16 16 15 14 13 12 11 9 10 10 8 8 9 8 8 10 9 8 8 9 9 6 5 8 7 8 9 7 7 7 8 7 6 6 6 7 7 6 7 9 8 8 8 8 9 8 8 8 8 8 8 8 8 8 8
11 9 8 11 12 7 7 4 10 11 10 13 14 14 14 14 13 13 13 13 15 15 15 15 16 17 16 15 15 16 17 16 15 14 13 12 13 12 11 11 9 8 8 9 8 8 8 9 9 8 9 9 5 4 7 9 9 7 7 8 8 8 7 7 6 5 5 6 7 5 5 5 5 6 7 8 7 7 8 7 7 7 7 7 7 7
9 12 12 10 9 8 9 11 11 12 12 13 12 12 14 14 14 13 13 14 15 16 16 17 17 16 14 15 16 16 16 15 15 14 13 12 11 12 11 11 10 9 7 8 9 9 10 9 8 8 8 7 6 8 7 7 8 8 6 6 7 6 6 4 3 4 5 6 4 4 5 5 4 6 6 6 6 6 7 7 5 6 7 6 7 7
8 8 5 7 11 12 14 13 13 13 13 12 13 12 12 12 14 16 16 17 17 18 18 16 14 14 14 15 15 15 16 15 14 13 12 12 11 11 10 9 9 9 9 10 10 9 8 9 8 7 8 6 6 7 7 4 3 9 8 7 7 6 6 4 4 5 5 4 4 3 3 3 3 5 5 4 5 5 5 4 5 5 5 5 5 4
11 11 13 13 13 11 10 13 15 11 10 11 13 14 14 14 16 18 17 17 17 18 17 17 16 15 15 15 15 15 15 14 14 13 13 11 11 12 11 10 9 10 10 9 8 8 8 8 8 8 7 5 4 7 7 6 7 8 8 7 7 7 6 6 6 6 5 6 7 6 4 5 5 5 4 6 4 4 4 3 6 5 4 3 3 5
8 11 9 6 9 11 14 17 8 10 14 11 13 13 14 14 16 17 18 18 17 16 16 18 18 17 16 15 14 14 14 14 14 13 13 12 12 10 10 10 9 7 7 9 9 7 8 8 8 8 6 6 5 8 7 7 8 9 9 8 7 7 8 7 6 6 6 6 5 7 8 8 7 6 4 3 5 6 5 3 4 6 5 5 5 7
Wind_Direction
166 203 205 207 211 208 212 218 216 230 247 223 213 209 222 230 228 231 179 167 181 203 199 213 217 197 167 180 169 192 191 197 202 185 130 123 117 90 89 79 96 77 76 88 100 38 66 68 66 66 66 67 62 63 70 71 64 54 55 61 71 77 81 40 48 41 20 42 4 23 19 97 177 227 194 168 153 162 170 184 196 187 194 225 237 217
205 209 214 210 211 213 207 218 221 232 244 251 229 215 221 228 233 220 186 161 171 222 188 219 215 166 170 174 168 158 180 186 106 85 133 144 119 121 119 105 96 101 95 90 72 55 56 61 61 55 52 50 61 52 55 62 64 70 68 60 59 60 69 63 62 57 84 358 28 346 18 280 182 210 177 118 151 155 169 187 184 196 200 220 231 221
211 216 210 211 209 218 214 210 222 229 239 248 257 211 215 225 247 220 208 164 165 208 201 199 213 161 161 158 159 166 190 167 163 115 97 114 122 132 121 116 114 99 87 77 73 57 49 46 47 52 48 47 46 51 49 45 51 42 50 63 59 55 53 64 51 11 45 46 32 2 337 324 308 276 83 129 150 143 162 185 195 191 194 226 243 236
207 216 211 209 209 215 220 213 213 224 236 243 242 264 224 210 209 206 221 174 171 189 214 190 194 151 147 160 165 165 136 101 67 66 83 93 105 114 112 110 100 89 84 72 61 53 49 47 43 39 39 35 37 36 37 38 43 50 43 38 50 51 51 60 72 34 39 41 333 346 322 297 284 327 11 199 162 158 152 167 210 195 197 207 227 238
211 201 204 211 209 210 219 212 211 216 224 229 244 243 242 204 199 242 199 182 160 180 237 188 189 155 165 159 159 139 146 138 76 78 86 83 82 86 82 76 80 84 80 77 68 59 54 53 54 53 48 43 41 36 35 28 30 34 44 39 45 53 50 56 52 61 28 46 340 31 287 252 234 215 195 114 33 96 173 185 181 203 205 207 210 228
212 206 192 211 209 207 215 213 209 209 224 220 229 243 248 232 208 223 175 175 179 191 222 225 147 177 171 186 172 144 154 102 87 87 76 90 87 85 85 88 87 85 84 82 75 67 64 61 54 49 48 47 45 42 31 34 30 31 33 36 43 51 39 34 42 34 19 14 5 341 304 329 329 319 59 88 167 175 187 208 172 187 204 208 212 214
221 197 201 201 210 206 210 221 204 209 220 221 205 232 249 255 228 222 148 173 196 207 197 227 196 157 177 189 154 162 119 97 85 80 79 76 78 75 82 88 88 89 85 78 77 71 66 63 60 55 50 49 46 34 31 31 29 33 35 29 33 41 34 28 18 25 336 355 352 356 318 300 287 304 354 135 151 252 233 174 170 183 192 216 222 232
217 199 203 201 207 208 206 215 204 200 217 222 201 222 238 255 247 233 164 178 197 229 236 220 231 165 187 203 193 165 125 113 96 87 84 81 82 83 78 81 81 80 81 81 78 76 68 66 63 57 52 43 37 28 26 29 25 22 27 32 30 33 33 18 11 11 4 345 352 341 318 298 302 295 321 82 174 151 251 244 200 176 177 201 225 224
205 205 205 201 203 206 209 209 203 199 214 219 210 210 226 237 247 264 213 170 204 205 224 217 195 223 202 186 180 138 142 130 119 111 101 96 90 89 85 80 80 77 77 80 79 75 72 68 65 63 57 48 37 29 24 21 21 18 19 26 26 19 18 16 8 4 1 353 337 320 311 305 297 305 342 83 39 72 134 287 307 289 239 193 204 229
191 217 207 209 200 209 205 197 216 200 211 217 230 196 224 233 242 262 244 203 192 211 224 222 195 209 201 185 183 145 151 153 132 128 121 112 103 92 86 81 81 83 80 78 78 79 76 69 63 59 60 55 46 34 29 21 22 23 19 19 27 19 10 9 2 356 358 354 348 349 352 348 342 336 331 355 125 239 345 312 349 353 316 333 349 335
186 200 241 206 202 214 203 203 212 206 211 204 235 231 208 228 236 251 259 201 180 205 231 226 206 216 227 189 183 180 179 147 133 134 128 120 110 97 85 83 80 78 79 81 79 76 70 66 64 59 57 50 43 37 31 23 22 27 21 10 26 27 7 7 4 357 354 351 354 355 353 347 347 350 345 341 318 168 73 301 300 331 2 16 342 344
204 182 223 225 201 203 206 202 205 208 195 212 220 233 204 217 243 265 262 206 186 208 220 229 219 208 233 161 185 177 160 138 142 144 140 133 123 109 99 93 86 85 82 75 75 71 69 70 63 56 55 47 40 32 33 27 21 24 23 10 12 25 5 9 3 354 354 354 356 354 350 347 352 348 346 346 336 333 320 317 327 6 355 8 301 287
216 203 196 230 221 214 190 217 192 209 194 206 217 217 207 189 200 228 239 201 204 211 214 227 209 209 217 32 312 170 119 129 131 136 136 131 121 111 101 93 87 78 85 87 77 76 74 66 61 55 47 46 39 34 34 32 20 17 18 10 8 17 5 7 2 356 0 358 357 356 352 353 350 351 348 344 335 350 338 325 349 332 356 290 270 267
209 212 185 219 188 199 207 204 195 200 194 204 211 211 205 199 192 220 219 222 208 216 225 227 198 216 70 45 50 96 106 113 118 124 122 121 115 109 99 100 97 92 87 84 81 81 72 62 63 56 53 49 43 39 38 38 34 25 22 8 11 14 8 7 4 356 6 360 0 354 353 351 354 350 349 341 338 340 349 346 318 296 273 263 259 275
193 204 199 194 201 177 229 224 208 200 190 207 211 216 212 208 197 209 215 207 211 214 213 224 204 102 151 125 84 100 103 112 113 117 112 109 109 108 111 111 108 106 101 90 84 74 71 70 66 64 56 46 45 43 35 42 33 31 22 14 16 15 8 12 360 360 355 2 358 355 358 358 356 352 342 336 332 338 339 337 331 248 268 282 282 274
205 216 189 186 205 183 215 222 224 196 200 202 209 207 207 212 202 218 204 249 213 232 232 232 61 355 87 121 111 106 110 109 116 112 114 115 114 115 107 110 112 108 104 96 88 84 74 69 63 64 65 55 47 44 38 46 53 37 22 4 13 7 32 14 9 358 353 1 355 359 5 1 352 348 334 331 330 328 330 330 330 303 259 233 264 277
193 215 181 178 209 195 209 211 219 205 209 181 212 210 204 208 225 200 174 239 310 355 247 95 126 92 124 118 122 124 120 123 121 124 121 120 115 110 114 113 110 104 93 87 75 67 66 62 60 57 58 60 54 53 44 40 42 44 7 24 344 39 40 32 16 4 358 4 4 1 5 1 350 345 339 333 331 328 328 325 321 315 303 280 260 268
192 210 187 188 202 204 195 215 221 212 213 188 217 212 195 212 232 212 222 151 245 238 208 126 137 162 154 163 157 139 135 136 137 129 128 124 124 123 119 119 115 106 93 84 75 67 62 63 60 61 58 53 50 42 24 36 88 39 17 337 10 336 57 47 30 8 11 6 356 2 358 354 355 343 341 341 342 340 328 320 319 317 314 316 306 285
220 212 195 188 202 211 187 203 226 230 207 219 211 192 201 182 217 214 237 199 200 217 228 132 148 156 183 127 163 151 148 149 139 136 131 133 130 122 122 117 114 98 88 82 75 70 67 64 69 62 55 58 58 35 70 50 30 45 356 10 9 28 7 48 22 8 7 14 1 5 357 352 353 353 345 348 347 342 332 327 325 324 323 318 327 305
210 238 186 172 196 201 194 192 215 209 197 229 210 203 211 233 221 211 191 244 219 216 238 149 183 166 175 157 171 163 154 146 140 138 135 128 128 123 119 121 108 101 88 86 82 81 82 79 69 63 58 54 46 34 30 44 43 17 25 29 4 35 11 22 19 7 7 10 14 356 360 2 352 354 354 352 348 338 335 335 333 332 334 331 312 286
216 241 217 176 194 191 199 196 215 200 185 202 219 201 196 231 230 243 169 207 212 225 215 139 206 125 46 134 176 164 148 141 144 140 130 128 125 121 116 110 111 101 104 100 95 94 83 76 77 65 53 55 52 47 45 34 46 34 22 23 29 13 24 28 6 14 8 14 6 2 2 4 359 358 355 353 345 338 342 337 329 325 323 321 322 319
233 185 234 179 187 199 206 198 218 199 191 198 212 214 205 210 214 213 216 187 216 222 219 201 168 106 58 5 41 188 143 143 137 130 126 119 115 114 111 112 113 114 109 104 101 99 88 78 69 68 69 62 55 41 48 45 44 38 35 29 29 24 26 26 10 16 14 14 6 5 3 5 4 0 356 346 345 343 339 333 324 323 326 325 320 318
232 139 230 191 197 200 206 195 221 233 204 195 197 212 204 194 221 213 233 200 213 223 227 268 109 116 26 340 63 115 131 136 127 127 124 122 119 120 116 114 121 121 118 110 101 92 92 79 66 60 57 60 54 48 46 45 44 44 34 33 36 25 23 20 15 15 19 15 7 6 2 2 10 358 355 347 346 341 338 332 334 333 337 336 334 331
191 209 203 193 203 214 210 202 196 222 220 215 200 216 217 214 197 226 225 208 216 215 217 76 80 47 3 6 98 108 109 115 123 123 125 126 126 123 118 120 121 114 111 109 96 93 76 76 73 59 53 48 50 46 39 34 42 40 36 28 27 31 25 26 8 3 25 21 12 9 359 7 8 354 343 344 345 340 338 340 336 337 334 333 332 334
188 206 216 183 200 201 207 201 196 204 223 222 210 199 222 220 205 208 229 161 200 226 246 145 156 130 95 10 112 113 117 122 126 122 126 128 129 121 117 118 118 111 103 99 89 79 79 74 60 54 49 44 41 47 38 39 35 34 31 25 25 21 17 18 1 3 25 22 15 10 3 8 6 351 345 353 340 339 346 344 338 337 338 338 338 339
208 174 206 193 194 188 201 201 195 192 204 207 215 212 216 225 227 221 218 183 224 202 230 125 87 99 114 105 114 114 116 118 115 117 118 123 126 124 121 121 114 110 106 98 128 132 105 84 74 61 49 44 40 35 39 39 38 33 29 30 22 20 16 15 11 10 354 22 16 12 7 10 6 350 349 350 342 350 355 349 352 351 348 347 345 344
193 194 209 207 199 204 213 219 208 192 198 210 197 217 209 220 226 230 244 214 209 195 76 102 142 138 140 133 127 127 130 126 122 120 123 126 125 119 120 119 114 109 103 101 68 58 66 57 77 78 63 62 49 41 38 44 40 33 30 30 24 12 19 19 357 16 6 15 18 7 10 7 357 348 353 353 351 358 354 357 0 359 358 353 350 351
199 203 203 187 218 173 339 252 206 207 205 204 204 210 217 210 232 239 224 261 229 210 92 96 138 137 154 143 135 131 129 129 126 126 126 129 128 127 124 120 116 115 105 94 83 75 71 71 50 43 35 41 48 35 42 54 43 39 45 38 34 18 7 13 28 13 15 14 14 8 8 358 358 351 359 354 357 357 353 358 2 3 1 357 358 354
185 215 153 134 169 281 226 318 247 224 216 203 204 214 225 212 215 216 72 67 55 359 134 144 141 125 140 140 135 133 131 126 129 128 132 131 128 131 130 122 115 106 104 96 85 76 70 62 58 53 44 32 32 29 24 30 28 16 27 14 35 357 18 25 11 36 16 19 14 9 4 358 1 0 6 1 356 357 357 1 1 3 3 3 0 357
205 206 159 167 201 207 221 215 333 343 269 215 202 211 232 255 20 357 106 77 86 111 127 132 127 122 127 132 132 114 111 117 117 120 125 134 134 129 123 119 113 108 97 89 84 80 69 60 55 51 47 36 33 31 28 23 26 18 21 5 19 10 24 18 25 26 25 18 11 6 7 5 4 2 7 4 360 360 360 358 1 4 3 5 2 0
200 134 145 165 161 195 191 104 107 36 37 269 206 202 104 62 58 71 84 87 92 92 101 112 114 113 108 113 101 94 97 105 122 134 129 126 129 124 117 113 107 105 99 94 91 84 74 62 50 45 40 35 32 29 28 27 21 26 20 16 14 6 11 17 23 25 24 17 9 9 7 8 6 2 5 6 4 2 1 3 3 2 2 3 4 2
186 133 106 91 113 216 182 132 105 85 79 71 51 42 50 64 67 51 73 37 104 120 122 116 116 129 129 120 123 122 130 135 130 127 128 128 125 121 112 109 114 106 95 82 73 66 63 59 49 40 35 35 32 27 25 23 20 23 21 19 10 10 8 20 26 24 18 13 8 7 10 10 8 6 7 8 6 5 4 4 5 2 1 1 1 3
173 162 133 138 176 196 169 129 123 118 88 57 36 19 34 73 83 77 64 24 127 141 141 155 157 143 140 138 132 136 130 124 123 127 128 127 120 117 118 115 101 90 86 83 74 68 60 52 48 46 40 38 34 31 27 23 21 23 25 14 20 18 13 19 29 28 19 12 10 9 11 10 8 6 6 7 6 7 9 6 6 4 3 1 357 358
171 164 152 193 208 186 159 126 116 137 173 140 49 4 70 89 87 80 56 42 31 46 40 79 123 134 138 141 135 136 131 124 118 109 109 120 125 110 104 103 100 94 88 82 78 72 71 65 57 52 45 41 42 35 26 28 23 28 25 20 21 19 23 24 29 26 21 16 12 12 10 10 9 7 5 4 3 0 9 10 9 6 4 357 358 358
187 146 135 124 229 133 114 107 79 170 111 307 260 22 113 110 93 85 76 73 82 92 97 104 122 132 135 133 130 128 123 113 99 87 87 90 86 98 110 105 101 99 93 87 86 84 77 68 61 57 51 49 46 41 36 36 34 34 31 25 25 27 27 31 29 25 20 15 13 12 9 8 10 8 3 2 2 3 4 5 10 10 5 360 3 1
176 174 136 89 13 75 120 169 188 113 264 183 108 94 90 92 97 83 65 56 71 88 110 117 126 128 129 127 122 111 102 95 86 76 85 98 107 113 116 111 108 106 102 99 90 81 75 69 65 62 62 55 53 51 47 43 39 37 36 31 29 28 28 31 32 28 20 16 14 11 10 9 9 7 4 1 4 4 6 3 4 9 6 3 2 7
198 190 188 141 162 175 133 75 65 167 163 138 142 145 158 140 184 144 108 56 73 107 121 123 123 126 126 125 120 116 113 105 94 85 82 112 115 117 116 115 116 112 109 104 97 88 84 80 74 68 66 60 52 53 45 45 43 44 40 37 34 31 30 28 31 29 22 19 17 15 17 14 9 6 359 1 6 7 6 3 2 7 2 7 9 8
156 212 192 188 165 155 142 117 141 173 194 201 191 165 82 73 80 101 101 106 111 115 126 127 129 131 130 130 131 132 133 105 96 111 130 127 123 123 120 116 113 111 113 116 102 92 85 82 80 77 69 65 66 58 56 52 49 52 50 45 40 32 31 32 31 27 24 21 21 16 18 17 11 7 1 2 6 4 3 359 4 9 1 4 13 14
85 55 17 220 179 148 162 146 136 157 21 143 168 170 149 126 130 124 97 122 164 148 145 136 134 136 138 142 144 155 148 107 119 137 146 137 131 128 123 120 118 114 105 93 93 94 87 80 73 75 71 63 61 59 61 59 52 49 52 50 46 36 32 31 29 27 23 27 24 19 18 19 16 12 7 4 2 6 6 2 1 6 2 1 8 15
76 56 26 50 184 185 142 113 96 29 47 134 149 162 157 156 160 232 231 187 170 164 152 148 142 146 148 149 161 183 146 134 148 150 148 138 134 131 131 132 126 118 108 105 92 84 81 81 83 71 65 63 65 63 53 47 48 49 53 56 51 42 36 30 31 29 22 29 27 20 22 24 21 17 14 11 4 9 11 6 5 6 7 4 9 6
117 122 174 228 144 94 91 86 81 72 64 119 146 162 148 176 181 215 218 126 156 153 153 149 146 146 152 160 174 172 84 119 131 137 137 134 132 126 119 117 113 114 111 109 104 99 94 87 73 69 66 60 59 55 49 43 39 50 58 58 50 48 41 31 29 30 30 32 30 24 25 27 21 18 22 17 10 14 20 12 11 11 11 9 8 7
70 95 130 126 144 133 144 106 95 88 335 212 127 135 149 170 189 181 63 130 141 146 149 149 145 151 158 164 116 100 104 116 129 131 132 134 129 126 124 120 116 105 109 108 100 93 83 80 79 77 69 59 55 52 54 42 34 43 45 51 54 50 42 34 33 30 33 31 33 28 28 33 25 15 21 17 13 22 27 21 17 17 13 11 10 8
41 49 49 66 69 78 47 119 144 139 175 274 126 89 8 270 82 114 124 126 135 135 141 139 142 149 137 110 110 115 121 125 129 133 133 131 129 130 127 124 125 121 122 120 110 105 106 90 83 80 69 62 55 52 51 55 38 28 47 49 50 50 45 44 34 31 34 36 35 36 31 34 29 19 20 25 21 21 29 25 20 18 18 16 13 13
337 96 85 39 326 139 167 134 55 62 130 186 192 151 75 94 127 126 129 130 133 137 135 136 133 130 124 125 126 126 127 129 130 132 132 130 128 124 123 122 120 126 107 89 95 93 82 88 79 66 66 64 54 48 45 38 48 51 55 47 45 55 53 45 31 24 37 44 38 30 37 33 32 23 18 28 29 26 27 29 21 21 22 20 19 18
6 93 70 111 334 343 90 99 105 95 94 71 76 94 107 115 124 127 127 130 136 137 135 131 131 130 132 132 129 129 129 130 131 134 132 133 131 130 133 141 141 109 108 116 102 97 86 74 75 79 75 67 66 62 89 66 43 47 41 39 47 58 50 37 31 29 36 33 32 28 32 32 34 32 28 15 23 29 31 31 22 21 21 24 25 24
111 111 105 90 83 90 79 84 96 104 111 104 99 113 116 117 116 124 127 129 133 134 134 130 135 133 134 134 131 130 130 134 134 134 131 133 136 136 130 108 100 114 119 109 105 107 104 97 85 75 76 68 50 42 44 48 47 52 33 21 44 60 54 38 38 46 41 42 34 28 27 28 29 40 39 21 14 15 27 41 29 20 18 21 25 27
155 159 108 110 146 111 84 81 101 105 110 103 104 104 109 116 121 126 128 127 131 131 126 132 133 135 136 137 132 132 134 137 134 135 136 136 147 147 132 118 114 112 116 121 126 105 90 89 85 72 66 73 62 59 59 54 63 57 46 35 30 43 48 42 30 36 43 43 36 31 28 42 32 41 52 32 21 18 13 29 44 23 20 19 17 25
98 102 106 110 107 101 127 125 112 102 104 110 113 118 118 121 123 127 128 127 125 125 129 131 133 133 139 134 135 134 133 135 137 139 144 147 127 116 117 125 131 124 100 82 83 93 97 94 85 77 71 62 43 51 48 51 62 70 62 61 54 46 46 60 45 45 45 41 40 46 34 41 31 63 75 57 39 27 17 10 30 45 20 13 13 9
116 128 93 112 104 111 115 124 124 118 110 117 118 112 117 122 127 126 128 128 127 127 128 131 131 131 133 133 135 134 135 141 144 140 129 114 116 115 112 101 96 90 83 78 69 74 87 87 91 92 85 74 64 68 61 53 42 60 57 45 52 57 48 17 31 50 53 48 25 45 62 49 57 77 102 100 85 59 31 15 355 20 51 19 3 3
83 92 110 109 120 139 147 146 141 133 137 125 121 119 125 126 127 127 126 129 132 133 132 131 130 131 132 139 142 146 146 138 129 130 128 127 123 121 121 122 123 120 120 117 109 102 104 110 104 93 94 96 80 75 65 30 45 62 53 49 44 53 59 39 26 21 29 29 34 12 34 34 39 49 91 134 135 114 98 66 61 26 16 32 12 341
103 142 153 139 150 157 148 149 140 120 124 125 122 129 135 135 133 132 131 133 136 133 133 132 133 136 147 159 165 144 122 126 132 131 124 120 118 122 126 128 119 111 107 110 109 104 86 87 104 107 94 84 82 81 67 49 33 42 47 46 44 43 56 47 33 31 20 24 32 25 26 33 22 23 25 51 124 157 150 135 76 59 42 19 337 325